HULIANWANG DIGUI 14G

Last updated on Wed Dec 10 2025 00:02:08 GMT+0000 (Coordinated Universal Time)

1 66921U 25285G 25343.64338685 -.00000129 00000+0 13915-4 0 9991 2 66921 50.0106 129.9074 0006950 284.5098 75.5036 14.05882489 472
UTC large
Height (km)
Speed (km/s)
/
Latitude / Longitude
Inclination (degrees)
Orbital Period (minutes)
Azimuth
Elevation
Range (km)
Doppler Factor

Next 0 passes for location: London (51.5072 / 0.1276)

Sorry there are no passes over London.